UAL19 KEWR-LIMC

Flight info

Callsign UAL19
Flight time N/A
Altitude 37000
Route MERIT DCT HFD DCT PUT DCT TUSKY DCT YHZ Q846 NOTOP DCT JOOPY/M083F390 DCT 49N050W 50N040W 51N030W 52N020W DCT LIMRI DCT XETBO DCT TAKAS/N0477F390 DCT ALUTA/N0483F410 DCT KORER DCT LEMKA DCT BEBIX/N0483F400 DCT VALKU/N0485F410 DCT TIS DCT MEBAK DCT GIPNO DCT BALSI DCT OBIGO DCT ROBEX DCT LAPRI/N0480F400 DCT MOGBO/N0483F410 DCT KODOK DCT TOP M135 ASTIG
Aircraft B772/H-SDE2E3FGHIJ5LORVWXY/LB1D1

Departure

Time 2026-05-05 18:46
Airport Newark Liberty International Airport (KEWR)

Arrival

Time N/A
Airport Milan Malpensa International Airport (LIMC)
Time Latitude Longitude Altitude Speed Heading
2026-05-05 17:48 40.69419 -74.17425 26 ft 0 kts 28°
2026-05-05 18:30 40.69418 -74.17426 26 ft 2 kts 28°
2026-05-05 18:31 40.69403 -74.17437 26 ft 3 kts 30°
2026-05-05 18:31 40.69383 -74.17453 26 ft 3 kts 37°
2026-05-05 18:31 40.69366 -74.17473 26 ft 3 kts 63°
2026-05-05 18:31 40.69363 -74.17493 26 ft 3 kts 136°
2026-05-05 18:32 40.69353 -74.17481 26 ft 3 kts 138°
2026-05-05 18:32 40.69342 -74.17456 26 ft 3 kts 104°
2026-05-05 18:32 40.69340 -74.17431 26 ft 3 kts 95°
2026-05-05 18:32 40.69337 -74.17400 26 ft 3 kts 101°
2026-05-05 18:33 40.69331 -74.17375 26 ft 2 kts 107°
2026-05-05 18:33 40.69326 -74.17346 26 ft 3 kts 105°
2026-05-05 18:33 40.69316 -74.17319 26 ft 2 kts 121°
2026-05-05 18:33 40.69305 -74.17298 26 ft 3 kts 124°
2026-05-05 18:34 40.69292 -74.17272 25 ft 3 kts 122°
2026-05-05 18:34 40.69289 -74.17266 26 ft 0 kts 121°
2026-05-05 18:36 40.69285 -74.17258 26 ft 5 kts 121°
2026-05-05 18:37 40.69266 -74.17216 26 ft 5 kts 122°
2026-05-05 18:37 40.69248 -74.17163 26 ft 13 kts 97°
2026-05-05 18:37 40.69296 -74.17103 26 ft 10 kts 14°
2026-05-05 18:37 40.69361 -74.17070 26 ft 10 kts 27°
2026-05-05 18:38 40.69421 -74.17027 25 ft 10 kts 25°
2026-05-05 18:38 40.69483 -74.16988 26 ft 10 kts 25°
2026-05-05 18:38 40.69545 -74.16949 26 ft 10 kts 25°
2026-05-05 18:38 40.69607 -74.16909 26 ft 10 kts 25°
2026-05-05 18:39 40.69669 -74.16870 26 ft 10 kts 25°
2026-05-05 18:39 40.69731 -74.16831 25 ft 10 kts 25°
2026-05-05 18:39 40.69794 -74.16791 31 ft 10 kts 25°
2026-05-05 18:39 40.69859 -74.16767 26 ft 10 kts
2026-05-05 18:40 40.69927 -74.16760 26 ft 10 kts
2026-05-05 18:40 40.70003 -74.16751 31 ft 12 kts
2026-05-05 18:40 40.70073 -74.16703 26 ft 12 kts 70°
2026-05-05 18:40 40.70076 -74.16640 27 ft 2 kts 93°
2026-05-05 18:41 40.70076 -74.16631 27 ft 0 kts 94°
2026-05-05 18:41 40.70075 -74.16613 26 ft 8 kts 94°
2026-05-05 18:41 40.70070 -74.16540 25 ft 8 kts 95°
2026-05-05 18:42 40.70067 -74.16489 25 ft 0 kts 95°
2026-05-05 18:42 40.70067 -74.16488 27 ft 0 kts 95°
2026-05-05 18:42 40.70067 -74.16487 26 ft 0 kts 95°
2026-05-05 18:42 40.70066 -74.16486 25 ft 0 kts 95°
2026-05-05 18:43 40.70066 -74.16478 25 ft 6 kts 95°
2026-05-05 18:43 40.70060 -74.16399 28 ft 9 kts 99°
2026-05-05 18:43 40.70018 -74.16371 27 ft 7 kts 195°
2026-05-05 18:44 40.69997 -74.16383 26 ft 0 kts 206°
2026-05-05 18:45 40.69984 -74.16392 25 ft 10 kts 206°
2026-05-05 18:45 40.69748 -74.16540 30 ft 72 kts 205°
2026-05-05 18:45 40.69088 -74.16959 27 ft 136 kts 205°
2026-05-05 18:45 40.68109 -74.17530 359 ft 162 kts 202°
2026-05-05 18:46 40.67030 -74.18188 830 ft 176 kts 201°
2026-05-05 18:46 40.65820 -74.18555 1639 ft 176 kts 193°
2026-05-05 18:46 40.64640 -74.19051 2201 ft 186 kts 204°
2026-05-05 18:46 40.63546 -74.20122 2436 ft 208 kts 230°
2026-05-05 18:47 40.62918 -74.21865 2933 ft 220 kts 253°
2026-05-05 18:47 40.62869 -74.23906 3542 ft 231 kts 275°
2026-05-05 18:47 40.63508 -74.25888 4204 ft 243 kts 299°
2026-05-05 18:47 40.64759 -74.27435 4849 ft 256 kts 321°
2026-05-05 18:48 40.66459 -74.28288 5428 ft 270 kts 344°
2026-05-05 18:48 40.68370 -74.28267 5994 ft 281 kts
2026-05-05 18:48 40.70190 -74.27354 6554 ft 288 kts 29°
2026-05-05 18:48 40.71727 -74.25638 7082 ft 290 kts 50°
2026-05-05 18:49 40.72998 -74.23553 7405 ft 297 kts 51°
2026-05-05 18:49 40.73867 -74.22128 7658 ft 305 kts 52°
2026-05-05 18:49 40.75645 -74.19141 8181 ft 318 kts 52°
2026-05-05 18:49 40.77039 -74.16837 8652 ft 324 kts 52°
2026-05-05 18:50 40.78003 -74.15264 9075 ft 325 kts 51°
2026-05-05 18:50 40.79431 -74.13003 9658 ft 326 kts 50°
2026-05-05 18:50 40.80880 -74.10679 10053 ft 330 kts 52°
2026-05-05 18:50 40.82291 -74.08249 10447 ft 339 kts 52°
2026-05-05 18:51 40.83576 -74.06065 10558 ft 355 kts 51°
2026-05-05 18:51 40.84198 -74.04998 10604 ft 363 kts 51°
2026-05-05 18:51 40.85796 -74.02287 10759 ft 384 kts 51°
2026-05-05 18:51 40.87464 -73.99499 11133 ft 398 kts 50°
2026-05-05 18:52 40.89199 -73.96617 11699 ft 404 kts 50°
2026-05-05 18:52 40.90964 -73.93685 12452 ft 409 kts 49°
2026-05-05 18:52 40.92737 -73.90727 13360 ft 410 kts 49°
2026-05-05 18:52 40.94514 -73.87761 14264 ft 411 kts 50°
2026-05-05 18:53 40.96290 -73.84777 15025 ft 414 kts 50°
2026-05-05 18:53 40.98088 -73.81761 15700 ft 419 kts 49°
2026-05-05 18:53 40.99886 -73.78753 16378 ft 423 kts 49°
2026-05-05 18:53 41.01710 -73.75690 17096 ft 425 kts 50°
2026-05-05 18:54 41.03541 -73.72599 17737 ft 428 kts 50°
2026-05-05 18:54 41.05392 -73.69478 18360 ft 431 kts 50°
2026-05-05 18:54 41.07253 -73.66340 18948 ft 434 kts 50°
2026-05-05 18:54 41.09134 -73.63168 19527 ft 438 kts 50°
2026-05-05 18:55 41.11002 -73.60015 20067 ft 441 kts 50°
2026-05-05 18:55 41.12903 -73.56803 20609 ft 444 kts 50°
2026-05-05 18:55 41.14820 -73.53562 21128 ft 448 kts 50°
2026-05-05 18:55 41.16744 -73.50297 21651 ft 450 kts 51°
2026-05-05 18:56 41.18363 -73.47555 22063 ft 452 kts 51°
2026-05-05 18:56 41.19107 -73.46293 22257 ft 453 kts 51°
2026-05-05 18:56 41.21057 -73.42983 22748 ft 457 kts 51°
2026-05-05 18:56 41.22995 -73.39682 23220 ft 459 kts 51°
2026-05-05 18:57 41.24971 -73.36319 23694 ft 462 kts 51°
2026-05-05 18:57 41.26955 -73.32938 24144 ft 465 kts 51°
2026-05-05 18:57 41.28952 -73.29527 24573 ft 468 kts 51°
2026-05-05 18:57 41.30958 -73.26103 25036 ft 470 kts 51°
2026-05-05 18:58 41.32980 -73.22649 25505 ft 473 kts 51°
2026-05-05 18:58 41.35008 -73.19181 25966 ft 475 kts 51°
2026-05-05 18:58 41.37019 -73.15731 26386 ft 477 kts 51°
2026-05-05 18:58 41.38969 -73.12129 26782 ft 480 kts 57°
2026-05-05 18:59 41.40706 -73.08304 27162 ft 484 kts 59°
2026-05-05 18:59 41.42402 -73.04418 27549 ft 486 kts 59°
2026-05-05 18:59 41.44093 -73.00502 27933 ft 488 kts 59°
2026-05-05 18:59 41.45717 -72.96747 28296 ft 491 kts 59°
2026-05-05 19:00 41.47438 -72.92799 28647 ft 493 kts 59°
2026-05-05 19:00 41.49175 -72.88837 28988 ft 495 kts 59°
2026-05-05 19:00 41.50918 -72.84865 29346 ft 497 kts 59°
2026-05-05 19:00 41.52652 -72.80922 29707 ft 498 kts 59°
2026-05-05 19:01 41.54070 -72.77692 29977 ft 500 kts 59°
2026-05-05 19:01 41.54922 -72.75748 30145 ft 501 kts 59°
2026-05-05 19:01 41.56682 -72.71731 30477 ft 502 kts 59°
2026-05-05 19:01 41.58448 -72.67691 30749 ft 504 kts 59°
2026-05-05 19:02 41.60226 -72.63610 31011 ft 506 kts 59°
2026-05-05 19:02 41.62001 -72.59528 31278 ft 508 kts 59°
2026-05-05 19:02 41.63759 -72.55489 31536 ft 510 kts 59°
2026-05-05 19:02 41.65561 -72.51392 31768 ft 511 kts 58°
2026-05-05 19:03 41.67398 -72.47305 32014 ft 512 kts 58°
2026-05-05 19:03 41.69241 -72.43239 32293 ft 512 kts 58°
2026-05-05 19:03 41.71093 -72.39156 32655 ft 511 kts 58°
2026-05-05 19:03 41.72924 -72.35103 33029 ft 508 kts 58°
2026-05-05 19:04 41.74749 -72.31048 33386 ft 506 kts 58°
2026-05-05 19:04 41.76562 -72.27008 33719 ft 505 kts 58°
2026-05-05 19:04 41.78369 -72.22970 34007 ft 504 kts 58°
2026-05-05 19:04 41.80172 -72.18933 34278 ft 504 kts 58°
2026-05-05 19:05 41.81949 -72.14950 34557 ft 503 kts 58°
2026-05-05 19:05 41.83743 -72.10920 34781 ft 504 kts 59°
2026-05-05 19:05 41.85547 -72.06869 35034 ft 504 kts 59°
2026-05-05 19:05 41.87346 -72.02819 35289 ft 504 kts 59°
2026-05-05 19:06 41.89083 -71.98905 35492 ft 504 kts 59°
2026-05-05 19:06 41.90881 -71.94848 35733 ft 504 kts 59°
2026-05-05 19:06 41.92648 -71.90857 35973 ft 504 kts 59°
2026-05-05 19:06 41.94444 -71.86799 36202 ft 504 kts 59°
2026-05-05 19:07 41.96173 -71.82688 36391 ft 504 kts 63°
2026-05-05 19:07 41.97742 -71.78470 36596 ft 505 kts 64°
2026-05-05 19:07 41.99257 -71.74261 36765 ft 505 kts 65°
2026-05-05 19:07 42.00773 -71.69991 36814 ft 507 kts 65°
2026-05-05 19:08 42.03806 -71.61431 36859 ft 504 kts 65°
2026-05-05 19:08 42.06819 -71.52997 36864 ft 495 kts 65°
2026-05-05 19:09 42.09784 -71.44709 36870 ft 492 kts 64°
2026-05-05 19:09 42.12746 -71.36417 36868 ft 490 kts 65°
2026-05-05 19:10 42.15702 -71.28123 36868 ft 490 kts 65°
2026-05-05 19:10 42.18634 -71.19867 36859 ft 492 kts 65°
2026-05-05 19:11 42.20684 -71.14073 36859 ft 494 kts 65°
2026-05-05 19:11 42.23627 -71.05732 36857 ft 496 kts 65°
2026-05-05 19:12 42.26548 -70.97432 36850 ft 498 kts 65°
2026-05-05 19:12 42.29527 -70.88952 36847 ft 499 kts 65°
2026-05-05 19:13 42.32476 -70.80517 36843 ft 499 kts 65°
2026-05-05 19:13 42.35453 -70.72010 36844 ft 499 kts 65°
2026-05-05 19:14 42.38405 -70.63501 36846 ft 498 kts 65°
2026-05-05 19:14 42.41319 -70.55081 36853 ft 496 kts 65°
2026-05-05 19:15 42.44240 -70.46635 36862 ft 494 kts 65°
2026-05-05 19:15 42.47149 -70.38192 36870 ft 494 kts 65°
2026-05-05 19:16 42.49165 -70.32331 36867 ft 494 kts 65°
2026-05-05 19:16 42.52050 -70.23918 36873 ft 493 kts 65°
2026-05-05 19:17 42.54941 -70.15460 36880 ft 493 kts 65°
2026-05-05 19:17 42.57813 -70.07030 36886 ft 494 kts 65°
2026-05-05 19:18 42.60642 -69.98713 36900 ft 494 kts 65°
2026-05-05 19:18 42.63515 -69.90219 36884 ft 495 kts 65°
2026-05-05 19:19 42.66389 -69.81691 36870 ft 495 kts 65°
2026-05-05 19:19 42.69255 -69.73167 36858 ft 495 kts 65°
2026-05-05 19:20 42.72100 -69.64691 36874 ft 496 kts 65°
2026-05-05 19:20 42.74960 -69.56139 36872 ft 496 kts 65°
2026-05-05 19:21 42.76933 -69.50214 36865 ft 497 kts 66°
2026-05-05 19:21 42.79788 -69.41631 36860 ft 497 kts 65°
2026-05-05 19:22 42.82637 -69.33043 36867 ft 496 kts 66°
2026-05-05 19:22 42.85485 -69.24419 36871 ft 497 kts 66°
2026-05-05 19:23 42.88303 -69.15875 36861 ft 497 kts 66°
2026-05-05 19:23 42.91129 -69.07270 36861 ft 496 kts 66°
2026-05-05 19:24 42.93885 -68.98850 36866 ft 496 kts 66°
2026-05-05 19:24 42.96703 -68.90220 36868 ft 496 kts 66°
2026-05-05 19:25 42.99507 -68.81604 36867 ft 496 kts 66°
2026-05-05 19:25 43.02272 -68.73045 36859 ft 495 kts 66°
2026-05-05 19:26 43.04214 -68.67047 36863 ft 496 kts 66°
2026-05-05 19:26 43.07007 -68.58404 36861 ft 496 kts 66°
2026-05-05 19:27 43.09779 -68.49793 36863 ft 497 kts 66°
2026-05-05 19:27 43.12567 -68.41089 36855 ft 498 kts 66°
2026-05-05 19:28 43.15338 -68.32396 36856 ft 498 kts 66°
2026-05-05 19:28 43.18086 -68.23768 36881 ft 496 kts 66°
2026-05-05 19:29 43.20840 -68.15087 36885 ft 496 kts 66°
2026-05-05 19:29 43.23593 -68.06377 36890 ft 496 kts 66°
2026-05-05 19:30 43.26274 -67.97871 36914 ft 496 kts 66°
2026-05-05 19:30 43.29007 -67.89177 36908 ft 496 kts 66°
2026-05-05 19:31 43.30890 -67.83155 36903 ft 496 kts 66°
2026-05-05 19:31 43.33600 -67.74492 36918 ft 497 kts 66°
2026-05-05 19:32 43.36329 -67.65735 36905 ft 498 kts 66°
2026-05-05 19:32 43.39037 -67.56999 36913 ft 498 kts 66°
2026-05-05 19:33 43.41749 -67.48228 36910 ft 497 kts 66°
2026-05-05 19:33 43.44457 -67.39452 36932 ft 497 kts 66°
2026-05-05 19:34 43.47133 -67.30725 36924 ft 497 kts 66°
2026-05-05 19:35 43.51161 -67.17565 36937 ft 496 kts 66°
2026-05-05 19:35 43.53833 -67.08790 36947 ft 495 kts 66°
2026-05-05 19:36 43.55906 -67.01974 36946 ft 495 kts 66°
2026-05-05 19:36 43.58609 -66.94349 36953 ft 493 kts 60°
2026-05-05 19:37 43.61977 -66.86077 36956 ft 493 kts 59°
2026-05-05 19:37 43.64783 -66.79237 36960 ft 492 kts 59°
2026-05-05 19:38 43.68655 -66.69629 36964 ft 491 kts 60°
2026-05-05 19:38 43.71401 -66.62732 36973 ft 490 kts 60°
2026-05-05 19:39 43.74681 -66.54454 36971 ft 491 kts 60°
2026-05-05 19:39 43.77941 -66.46193 36975 ft 491 kts 60°
2026-05-05 19:40 43.81211 -66.37882 36975 ft 491 kts 60°
2026-05-05 19:40 43.84482 -66.29555 36983 ft 491 kts 60°
2026-05-05 19:41 43.87498 -66.21858 36980 ft 491 kts 60°
2026-05-05 19:41 43.89991 -66.15485 36979 ft 492 kts 60°
2026-05-05 19:42 43.93224 -66.07191 36978 ft 491 kts 60°
2026-05-05 19:42 43.96420 -65.98963 36981 ft 492 kts 60°
2026-05-05 19:43 43.99669 -65.90578 36988 ft 493 kts 60°
2026-05-05 19:43 44.02912 -65.82180 36975 ft 494 kts 60°
2026-05-05 19:44 44.06135 -65.73815 36971 ft 493 kts 60°
2026-05-05 19:44 44.09361 -65.65400 36965 ft 492 kts 60°
2026-05-05 19:45 44.12584 -65.56999 36961 ft 491 kts 60°
2026-05-05 19:45 44.15796 -65.48593 36956 ft 492 kts 60°
2026-05-05 19:46 44.18713 -65.40930 36951 ft 492 kts 60°
2026-05-05 19:46 44.21173 -65.34456 36944 ft 493 kts 60°
2026-05-05 19:47 44.24374 -65.25995 36937 ft 493 kts 60°
2026-05-05 19:47 44.27578 -65.17509 36935 ft 493 kts 60°
2026-05-05 19:48 44.30776 -65.09011 36928 ft 494 kts 60°
2026-05-05 19:48 44.33950 -65.00571 36929 ft 494 kts 60°
2026-05-05 19:49 44.37080 -64.92187 36909 ft 494 kts 60°
2026-05-05 19:49 44.40263 -64.83636 36935 ft 495 kts 60°
2026-05-05 19:50 44.43436 -64.75102 36940 ft 494 kts 60°
2026-05-05 19:50 44.46606 -64.66553 36945 ft 494 kts 60°
2026-05-05 19:51 44.49416 -64.58952 36947 ft 494 kts 60°
2026-05-05 19:51 44.51919 -64.52169 36943 ft 493 kts 60°
2026-05-05 19:52 44.55060 -64.43614 36950 ft 492 kts 60°
2026-05-05 19:52 44.58179 -64.35115 36954 ft 493 kts 60°
2026-05-05 19:53 44.61310 -64.26536 36962 ft 493 kts 60°
2026-05-05 19:53 44.64418 -64.17999 36974 ft 494 kts 60°
2026-05-05 19:54 44.67559 -64.09343 36977 ft 495 kts 60°
2026-05-05 19:54 44.70662 -64.00767 36980 ft 495 kts 60°
2026-05-05 19:55 44.73727 -63.92269 36985 ft 494 kts 60°
2026-05-05 19:55 44.76830 -63.83634 36992 ft 494 kts 60°
2026-05-05 19:56 44.79548 -63.76056 36990 ft 494 kts 60°
2026-05-05 19:56 44.82066 -63.69008 36993 ft 495 kts 60°
2026-05-05 19:57 44.85163 -63.60328 36991 ft 496 kts 60°
2026-05-05 19:57 44.88240 -63.51672 36988 ft 497 kts 60°
2026-05-05 19:58 44.91334 -63.42939 36985 ft 497 kts 60°
2026-05-05 19:58 44.94367 -63.34219 36973 ft 497 kts 62°
2026-05-05 19:59 44.97344 -63.25369 36983 ft 497 kts 62°
2026-05-05 19:59 45.00287 -63.16599 36967 ft 497 kts 62°
2026-05-05 20:00 45.03262 -63.07750 36974 ft 497 kts 62°
2026-05-05 20:00 45.06192 -62.99024 36974 ft 498 kts 62°
2026-05-05 20:01 45.08862 -62.91536 36972 ft 496 kts 57°
2026-05-05 20:01 45.11698 -62.84568 36974 ft 496 kts 56°
2026-05-05 20:02 45.15199 -62.76117 36960 ft 496 kts 56°
2026-05-05 20:02 45.18669 -62.67656 36964 ft 497 kts 57°
2026-05-05 20:03 45.22112 -62.59163 36956 ft 497 kts 57°
2026-05-05 20:03 45.25519 -62.50713 36951 ft 496 kts 57°
2026-05-05 20:04 45.28941 -62.42203 36951 ft 495 kts 57°
2026-05-05 20:04 45.32353 -62.33704 36955 ft 495 kts 57°
2026-05-05 20:05 45.35743 -62.25230 36955 ft 495 kts 57°
2026-05-05 20:05 45.39152 -62.16696 36953 ft 495 kts 57°
2026-05-05 20:06 45.42018 -62.09478 36954 ft 496 kts 57°
2026-05-05 20:06 45.44899 -62.02216 36953 ft 497 kts 57°
2026-05-05 20:07 45.48122 -61.93765 36949 ft 498 kts 59°
2026-05-05 20:07 45.51321 -61.84953 36948 ft 499 kts 59°
2026-05-05 20:08 45.54497 -61.76123 36957 ft 500 kts 59°
2026-05-05 20:08 45.57687 -61.67310 36953 ft 499 kts 59°
2026-05-05 20:09 45.60861 -61.58533 36956 ft 499 kts 59°
2026-05-05 20:09 45.64048 -61.49690 36954 ft 499 kts 59°
2026-05-05 20:10 45.67214 -61.40912 36948 ft 498 kts 59°
2026-05-05 20:10 45.70370 -61.32092 36948 ft 495 kts 59°
2026-05-05 20:11 45.72973 -61.24842 36957 ft 496 kts 59°
2026-05-05 20:11 45.75630 -61.17403 36952 ft 495 kts 59°
2026-05-05 20:12 45.78772 -61.08582 36954 ft 496 kts 59°
2026-05-05 20:12 45.81867 -60.99824 36959 ft 497 kts 59°
2026-05-05 20:13 45.84963 -60.91058 36954 ft 499 kts 59°
2026-05-05 20:13 45.88103 -60.82149 36956 ft 500 kts 59°
2026-05-05 20:14 45.91228 -60.73280 36947 ft 499 kts 59°
2026-05-05 20:14 45.94346 -60.64347 36954 ft 500 kts 59°
2026-05-05 20:15 45.97445 -60.55439 36948 ft 499 kts 59°
2026-05-05 20:15 46.00554 -60.46510 36946 ft 501 kts 59°
2026-05-05 20:16 46.03075 -60.39219 36939 ft 501 kts 59°
2026-05-05 20:16 46.05767 -60.31416 36951 ft 502 kts 59°
2026-05-05 20:17 46.08886 -60.22378 36947 ft 502 kts 59°
2026-05-05 20:17 46.11970 -60.13401 36942 ft 500 kts 59°
2026-05-05 20:18 46.15050 -60.04391 36948 ft 501 kts 59°
2026-05-05 20:18 46.18072 -59.95511 36938 ft 500 kts 59°
2026-05-05 20:19 46.21112 -59.86554 36943 ft 499 kts 59°
2026-05-05 20:19 46.24166 -59.77549 36941 ft 498 kts 59°
2026-05-05 20:20 46.27229 -59.68528 36952 ft 500 kts 59°
2026-05-05 20:20 46.30241 -59.59553 36946 ft 499 kts 59°
2026-05-05 20:21 46.32652 -59.52358 36946 ft 499 kts 59°
2026-05-05 20:21 46.35352 -59.44265 36951 ft 502 kts 59°
2026-05-05 20:22 46.38381 -59.35130 36954 ft 502 kts 59°
2026-05-05 20:22 46.41399 -59.26054 36955 ft 502 kts 60°
2026-05-05 20:23 46.44422 -59.16927 36954 ft 502 kts 60°
2026-05-05 20:23 46.47456 -59.07709 36960 ft 507 kts 60°
2026-05-05 20:24 46.50435 -58.98666 36953 ft 508 kts 59°
2026-05-05 20:24 46.53473 -58.89382 36947 ft 507 kts 60°
2026-05-05 20:25 46.55986 -58.81678 36953 ft 507 kts 60°
2026-05-05 20:25 46.59494 -58.70892 36949 ft 505 kts 60°
2026-05-05 20:26 46.61866 -58.63732 36977 ft 508 kts 60°
2026-05-05 20:26 46.64091 -58.56789 36974 ft 509 kts 60°
2026-05-05 20:27 46.67075 -58.47403 36964 ft 509 kts 61°
2026-05-05 20:27 46.70041 -58.38058 36974 ft 509 kts 60°
2026-05-05 20:28 46.73071 -58.28786 36966 ft 504 kts 59°
2026-05-05 20:28 46.76050 -58.19624 36988 ft 502 kts 60°
2026-05-05 20:29 46.78939 -58.10351 37005 ft 498 kts 61°
2026-05-05 20:29 46.81718 -58.01060 36996 ft 499 kts 62°
2026-05-05 20:30 46.84607 -57.91901 36983 ft 506 kts 60°
2026-05-05 20:30 46.87603 -57.82564 36999 ft 514 kts 62°
2026-05-05 20:31 46.90287 -57.73767 36998 ft 515 kts 60°
2026-05-05 20:31 46.92600 -57.66538 36997 ft 509 kts 60°
2026-05-05 20:32 46.95581 -57.57281 37005 ft 503 kts 60°
2026-05-05 20:32 46.98501 -57.47921 37003 ft 504 kts 61°
2026-05-05 20:33 47.01366 -57.38522 37008 ft 506 kts 62°
2026-05-05 20:33 47.04193 -57.29143 37014 ft 504 kts 62°
2026-05-05 20:34 47.07115 -57.19664 37030 ft 511 kts 61°
2026-05-05 20:34 47.10013 -57.10203 37049 ft 513 kts 62°
2026-05-05 20:35 47.12917 -57.00595 37042 ft 512 kts 61°
2026-05-05 20:35 47.15775 -56.91228 37040 ft 514 kts 62°
2026-05-05 20:36 47.18403 -56.82499 37042 ft 515 kts 63°
2026-05-05 20:36 47.20571 -56.74956 37054 ft 513 kts 63°
2026-05-05 20:37 47.23444 -56.65364 37055 ft 513 kts 62°
2026-05-05 20:37 47.26385 -56.55820 37029 ft 510 kts 61°
2026-05-05 20:38 47.29279 -56.46374 37035 ft 506 kts 62°
2026-05-05 20:38 47.32074 -56.36802 37055 ft 514 kts 63°
2026-05-05 20:39 47.34829 -56.27004 37050 ft 515 kts 64°
2026-05-05 20:39 47.37659 -56.17352 37044 ft 519 kts 62°
2026-05-05 20:40 47.40546 -56.07627 37028 ft 510 kts 63°
2026-05-05 20:40 47.43337 -55.98207 37048 ft 509 kts 63°
2026-05-05 20:41 47.45831 -55.89648 37031 ft 512 kts 64°
2026-05-05 20:41 47.48037 -55.81946 37050 ft 518 kts 63°
2026-05-05 20:42 47.50911 -55.72111 37013 ft 522 kts 64°
2026-05-05 20:42 47.53748 -55.62311 37020 ft 513 kts 64°
2026-05-05 20:43 47.56486 -55.52555 37015 ft 513 kts 64°
2026-05-05 20:43 47.59241 -55.42814 36998 ft 516 kts 64°
2026-05-05 20:44 47.62043 -55.32989 36998 ft 517 kts 64°
2026-05-05 20:44 47.64815 -55.23231 36986 ft 516 kts 64°
2026-05-05 20:45 47.68984 -55.08446 36987 ft 517 kts 64°
2026-05-05 20:45 47.71697 -54.98741 36982 ft 518 kts 64°
2026-05-05 20:46 47.73558 -54.92085 36971 ft 519 kts 65°
2026-05-05 20:46 47.76308 -54.82167 36969 ft 518 kts 65°
2026-05-05 20:47 47.79051 -54.72226 36957 ft 518 kts 65°
2026-05-05 20:47 47.81771 -54.62381 36958 ft 517 kts 65°
2026-05-05 20:48 47.84493 -54.52448 36967 ft 518 kts 65°
2026-05-05 20:48 47.87222 -54.42482 36971 ft 519 kts 65°
2026-05-05 20:49 47.89936 -54.32516 36971 ft 519 kts 66°
2026-05-05 20:49 47.92631 -54.22568 36970 ft 520 kts 66°
2026-05-05 20:50 47.95340 -54.12515 36958 ft 521 kts 66°
2026-05-05 20:50 47.98020 -54.02535 36962 ft 521 kts 66°
2026-05-05 20:51 47.99800 -53.95887 36963 ft 521 kts 66°
2026-05-05 20:51 48.02480 -53.85845 36964 ft 521 kts 66°
2026-05-05 20:52 48.05152 -53.75803 36965 ft 522 kts 66°
2026-05-05 20:52 48.07806 -53.65767 36968 ft 521 kts 66°
2026-05-05 20:53 48.10454 -53.55695 36973 ft 520 kts 66°
2026-05-05 20:53 48.13103 -53.45593 36972 ft 520 kts 66°
2026-05-05 20:54 48.15725 -53.35544 36974 ft 520 kts 67°
2026-05-05 20:54 48.18353 -53.25431 36974 ft 519 kts 67°
2026-05-05 20:55 48.20976 -53.15311 36988 ft 519 kts 67°
2026-05-05 20:55 48.23561 -53.05275 36980 ft 518 kts 67°
2026-05-05 20:56 48.25243 -52.98717 36981 ft 518 kts 68°
2026-05-05 20:56 48.27828 -52.88609 36981 ft 518 kts 68°
2026-05-05 20:57 48.30386 -52.78562 36988 ft 517 kts 68°
2026-05-05 20:57 48.32954 -52.68429 36978 ft 518 kts 68°
2026-05-05 20:58 48.35495 -52.58359 36983 ft 518 kts 68°
2026-05-05 20:58 48.38045 -52.48215 36982 ft 518 kts 68°
2026-05-05 20:59 48.40577 -52.38095 36982 ft 518 kts 68°
2026-05-05 20:59 48.43108 -52.27927 36975 ft 517 kts 68°
2026-05-05 21:00 48.45629 -52.17754 36975 ft 518 kts 69°
2026-05-05 21:00 48.48132 -52.07608 36970 ft 518 kts 69°
2026-05-05 21:01 48.49817 -52.00755 36972 ft 518 kts 69°
2026-05-05 21:01 48.52353 -51.90754 36967 ft 517 kts 68°
2026-05-05 21:02 48.54991 -51.80707 36974 ft 518 kts 67°
2026-05-05 21:02 48.57637 -51.70577 36971 ft 519 kts 68°
2026-05-05 21:03 48.60263 -51.60383 36975 ft 520 kts 68°
2026-05-05 21:03 48.62860 -51.50251 36973 ft 520 kts 68°
2026-05-05 21:04 48.65465 -51.40025 36973 ft 519 kts 68°
2026-05-05 21:04 48.68047 -51.29843 36982 ft 521 kts 68°
2026-05-05 21:05 48.69348 -51.24701 37104 ft 523 kts 69°
2026-05-05 21:05 48.70646 -51.19559 37316 ft 523 kts 68°
2026-05-05 21:05 48.71944 -51.14415 37578 ft 522 kts 69°
2026-05-05 21:05 48.73234 -51.09283 37809 ft 521 kts 69°
2026-05-05 21:06 48.74020 -51.06155 37927 ft 522 kts 69°
2026-05-05 21:06 48.74930 -51.02518 38039 ft 522 kts 69°
2026-05-05 21:06 48.76161 -50.97596 38192 ft 523 kts 69°
2026-05-05 21:06 48.77455 -50.92409 38381 ft 524 kts 69°
2026-05-05 21:07 48.78739 -50.87247 38555 ft 524 kts 69°
2026-05-05 21:07 48.80027 -50.82064 38687 ft 525 kts 69°
2026-05-05 21:07 48.81313 -50.76869 38838 ft 526 kts 69°
2026-05-05 21:07 48.82597 -50.71671 38902 ft 527 kts 68°
2026-05-05 21:08 48.85151 -50.61294 38964 ft 526 kts 68°
2026-05-05 21:08 48.87696 -50.50906 38969 ft 522 kts 68°
2026-05-05 21:09 48.90221 -50.40571 38971 ft 520 kts 68°
2026-05-05 21:09 48.92717 -50.30294 38973 ft 519 kts 69°
2026-05-05 21:10 48.95204 -50.19979 38973 ft 518 kts 69°
2026-05-05 21:10 48.97686 -50.09664 38972 ft 520 kts 69°
2026-05-05 21:11 48.99376 -50.02615 38976 ft 519 kts 69°
2026-05-05 21:11 49.01270 -49.92167 38982 ft 522 kts 77°
2026-05-05 21:12 49.02792 -49.81309 38981 ft 524 kts 78°
2026-05-05 21:12 49.04280 -49.70462 38974 ft 526 kts 77°
2026-05-05 21:13 49.05815 -49.59541 38976 ft 527 kts 77°
2026-05-05 21:13 49.07099 -49.50462 38965 ft 527 kts 77°
2026-05-05 21:14 49.08648 -49.39488 38954 ft 527 kts 77°
2026-05-05 21:14 49.10179 -49.28551 38955 ft 526 kts 78°
2026-05-05 21:15 49.11688 -49.17681 38951 ft 525 kts 78°
2026-05-05 21:15 49.13189 -49.06758 38950 ft 524 kts 78°
2026-05-05 21:16 49.14157 -48.99677 38953 ft 524 kts 78°
2026-05-05 21:16 49.15630 -48.88860 38953 ft 522 kts 78°
2026-05-05 21:17 49.17098 -48.77980 38954 ft 522 kts 78°
2026-05-05 21:17 49.18550 -48.67110 38956 ft 521 kts 78°
2026-05-05 21:18 49.19988 -48.56292 38956 ft 522 kts 78°
2026-05-05 21:18 49.21427 -48.45399 38953 ft 522 kts 78°
2026-05-05 21:19 49.22852 -48.34499 38954 ft 522 kts 78°
2026-05-05 21:19 49.24260 -48.23651 38955 ft 522 kts 79°
2026-05-05 21:20 49.25669 -48.12700 38945 ft 522 kts 79°
2026-05-05 21:20 49.27058 -48.01845 38948 ft 523 kts 79°
2026-05-05 21:21 49.27967 -47.94719 38952 ft 522 kts 79°
2026-05-05 21:21 49.29341 -47.83766 38952 ft 522 kts 79°
2026-05-05 21:22 49.30700 -47.72912 38962 ft 521 kts 79°
2026-05-05 21:22 49.32066 -47.61962 38969 ft 522 kts 79°
2026-05-05 21:23 49.33411 -47.51033 38960 ft 522 kts 79°
2026-05-05 21:23 49.34740 -47.40126 38966 ft 522 kts 79°
2026-05-05 21:24 49.36072 -47.29137 38960 ft 523 kts 80°
2026-05-05 21:24 49.37381 -47.18230 38957 ft 523 kts 80°
2026-05-05 21:25 49.38688 -47.07236 38965 ft 522 kts 80°
2026-05-05 21:25 49.39963 -46.96428 38972 ft 522 kts 80°
2026-05-05 21:26 49.40861 -46.88765 38971 ft 522 kts 80°
2026-05-05 21:26 49.42140 -46.77768 38975 ft 522 kts 80°
2026-05-05 21:27 49.43409 -46.66778 38973 ft 522 kts 80°
2026-05-05 21:27 49.44668 -46.55782 38972 ft 523 kts 80°
2026-05-05 21:28 49.45907 -46.44835 38973 ft 522 kts 81°
2026-05-05 21:28 49.47144 -46.33829 38970 ft 522 kts 81°
2026-05-05 21:29 49.48371 -46.22824 38973 ft 521 kts 81°
2026-05-05 21:29 49.49578 -46.11822 38964 ft 521 kts 81°
2026-05-05 21:30 49.50774 -46.00892 38963 ft 521 kts 81°
2026-05-05 21:30 49.51951 -45.90049 38962 ft 521 kts 81°
2026-05-05 21:31 49.52778 -45.82368 38962 ft 520 kts 81°
2026-05-05 21:31 49.53953 -45.71351 38964 ft 520 kts 81°
2026-05-05 21:32 49.55114 -45.60348 38963 ft 521 kts 81°
2026-05-05 21:32 49.56259 -45.49378 38962 ft 521 kts 81°
2026-05-05 21:33 49.57405 -45.38353 38964 ft 521 kts 81°
2026-05-05 21:33 49.58538 -45.27322 38975 ft 521 kts 82°
2026-05-05 21:34 49.59653 -45.16343 38984 ft 521 kts 82°
2026-05-05 21:34 49.60759 -45.05302 38990 ft 521 kts 82°
2026-05-05 21:35 49.61849 -44.94378 38997 ft 523 kts 82°
2026-05-05 21:35 49.62942 -44.83349 38994 ft 523 kts 82°
2026-05-05 21:36 49.63656 -44.76073 38988 ft 523 kts 82°
2026-05-05 21:36 49.64730 -44.65017 38991 ft 522 kts 82°
2026-05-05 21:37 49.65787 -44.53942 38996 ft 521 kts 83°
2026-05-05 21:37 49.66837 -44.42889 39095 ft 519 kts 83°
2026-05-05 21:38 49.67876 -44.31878 39140 ft 518 kts 83°
2026-05-05 21:38 49.68909 -44.20819 39145 ft 520 kts 83°
2026-05-05 21:39 49.69920 -44.09809 39139 ft 521 kts 83°
2026-05-05 21:39 49.70910 -43.98881 39135 ft 521 kts 83°
2026-05-05 21:40 49.71905 -43.87853 39153 ft 520 kts 83°
2026-05-05 21:40 49.72897 -43.76740 39148 ft 520 kts 83°
2026-05-05 21:41 49.73475 -43.70147 39155 ft 521 kts 83°
2026-05-05 21:41 49.74442 -43.59104 39148 ft 521 kts 83°
2026-05-05 21:42 49.75410 -43.47983 39146 ft 521 kts 83°
2026-05-05 21:42 49.76363 -43.36857 39155 ft 521 kts 84°
2026-05-05 21:43 49.77297 -43.25777 39152 ft 522 kts 84°
2026-05-05 21:43 49.78233 -43.14592 39156 ft 523 kts 84°
2026-05-05 21:44 49.79156 -43.03406 39155 ft 523 kts 84°
2026-05-05 21:44 49.80048 -42.92478 39164 ft 525 kts 84°
2026-05-05 21:45 49.80951 -42.81264 39166 ft 525 kts 84°
2026-05-05 21:45 49.81848 -42.70018 39165 ft 525 kts 84°
2026-05-05 21:46 49.82345 -42.63692 39165 ft 524 kts 85°
2026-05-05 21:46 49.83214 -42.52531 39170 ft 525 kts 85°
2026-05-05 21:47 49.84083 -42.41287 39171 ft 524 kts 85°
2026-05-05 21:47 49.84935 -42.30122 39178 ft 524 kts 85°
2026-05-05 21:48 49.85778 -42.18888 39177 ft 524 kts 85°
2026-05-05 21:48 49.86610 -42.07642 39175 ft 524 kts 85°
2026-05-05 21:49 49.87409 -41.96708 39179 ft 524 kts 85°
2026-05-05 21:49 49.88226 -41.85467 39183 ft 523 kts 85°
2026-05-05 21:50 49.89017 -41.74227 39181 ft 523 kts 86°
2026-05-05 21:50 49.89799 -41.63073 39181 ft 523 kts 85°
2026-05-05 21:51 49.90269 -41.56351 39197 ft 523 kts 86°
2026-05-05 21:51 49.91033 -41.45128 39185 ft 521 kts 86°
2026-05-05 21:52 49.92171 -41.28330 39196 ft 522 kts 86°
2026-05-05 21:53 49.92914 -41.17117 39192 ft 523 kts 86°
2026-05-05 21:53 49.93644 -41.05898 39202 ft 524 kts 86°
2026-05-05 21:54 49.94358 -40.94788 39184 ft 524 kts 86°
2026-05-05 21:54 49.95070 -40.83564 39211 ft 525 kts 86°
2026-05-05 21:55 49.95771 -40.72267 39201 ft 526 kts 86°
2026-05-05 21:55 49.96463 -40.60926 39202 ft 527 kts 87°
2026-05-05 21:56 49.97003 -40.51947 39196 ft 527 kts 87°
2026-05-05 21:56 49.97530 -40.43087 39207 ft 526 kts 87°
2026-05-05 21:57 49.98196 -40.31745 39208 ft 525 kts 87°
2026-05-05 21:57 49.98846 -40.20506 39202 ft 524 kts 87°
2026-05-05 21:58 49.99487 -40.09213 39207 ft 523 kts 87°
2026-05-05 21:58 50.00221 -39.98189 39214 ft 524 kts 82°
2026-05-05 21:59 50.01749 -39.87180 39214 ft 523 kts 78°
2026-05-05 21:59 50.03407 -39.76136 39212 ft 524 kts 78°
2026-05-05 22:00 50.05027 -39.65096 39217 ft 523 kts 79°
2026-05-05 22:00 50.06341 -39.55915 39221 ft 522 kts 79°
2026-05-05 22:01 50.07817 -39.45462 39219 ft 522 kts 79°
2026-05-05 22:01 50.08771 -39.38627 39223 ft 524 kts 79°
2026-05-05 22:02 50.10317 -39.27543 39222 ft 522 kts 79°
2026-05-05 22:02 50.11847 -39.16465 39219 ft 522 kts 79°
2026-05-05 22:03 50.13356 -39.05464 39228 ft 522 kts 79°
2026-05-05 22:03 50.14837 -38.94605 39235 ft 522 kts 79°
2026-05-05 22:04 50.16337 -38.83496 39229 ft 522 kts 79°
2026-05-05 22:04 50.17817 -38.72423 39228 ft 521 kts 79°
2026-05-05 22:05 50.19302 -38.61322 39233 ft 522 kts 80°
2026-05-05 22:05 50.20759 -38.50298 39228 ft 521 kts 80°
2026-05-05 22:06 50.22109 -38.40019 39233 ft 520 kts 80°
2026-05-05 22:06 50.23020 -38.33027 39237 ft 521 kts 80°
2026-05-05 22:07 50.24455 -38.21926 39242 ft 521 kts 80°
2026-05-05 22:07 50.25877 -38.10899 39242 ft 521 kts 80°
2026-05-05 22:08 50.27283 -37.99858 39238 ft 521 kts 80°
2026-05-05 22:08 50.28671 -37.88873 39242 ft 522 kts 80°
2026-05-05 22:09 50.30064 -37.77777 39241 ft 522 kts 80°
2026-05-05 22:09 50.31456 -37.66600 39243 ft 523 kts 80°
2026-05-05 22:10 50.32840 -37.55414 39250 ft 522 kts 81°
2026-05-05 22:10 50.34196 -37.44318 39251 ft 522 kts 81°
2026-05-05 22:11 50.35435 -37.34105 39249 ft 522 kts 81°
2026-05-05 22:11 50.36343 -37.26590 39247 ft 522 kts 81°
2026-05-05 22:12 50.37678 -37.15462 39254 ft 521 kts 81°
2026-05-05 22:12 50.39001 -37.04285 39240 ft 522 kts 81°
2026-05-05 22:13 50.40294 -36.93287 39206 ft 521 kts 81°
2026-05-05 22:13 50.41598 -36.82118 39201 ft 519 kts 81°
2026-05-05 22:14 50.42886 -36.70966 39208 ft 518 kts 81°
2026-05-05 22:14 50.44155 -36.59897 39198 ft 517 kts 81°
2026-05-05 22:15 50.45422 -36.48764 39202 ft 518 kts 81°
2026-05-05 22:15 50.46615 -36.38151 39208 ft 518 kts 81°
2026-05-05 22:16 50.47689 -36.28525 39198 ft 519 kts 81°
2026-05-05 22:16 50.48012 -36.25622 39208 ft 519 kts 81°
2026-05-05 22:17 50.49253 -36.14430 39204 ft 520 kts 81°
2026-05-05 22:17 50.50474 -36.03282 39213 ft 522 kts 81°
2026-05-05 22:18 50.51677 -35.92192 39203 ft 523 kts 81°
2026-05-05 22:18 50.52888 -35.80906 39208 ft 524 kts 81°
2026-05-05 22:19 50.54089 -35.69593 39212 ft 524 kts 81°
2026-05-05 22:19 50.55282 -35.58295 39214 ft 523 kts 81°
2026-05-05 22:20 50.56454 -35.47083 39214 ft 522 kts 81°
2026-05-05 22:20 50.57618 -35.35818 39208 ft 520 kts 82°
2026-05-05 22:21 50.58628 -35.25975 39202 ft 519 kts 82°
2026-05-05 22:21 50.59538 -35.17029 39217 ft 518 kts 82°
2026-05-05 22:22 50.60656 -35.05879 39211 ft 517 kts 82°
2026-05-05 22:22 50.61756 -34.94864 39220 ft 515 kts 82°
2026-05-05 22:23 50.62851 -34.83771 39222 ft 516 kts 82°
2026-05-05 22:23 50.63945 -34.72573 39223 ft 515 kts 82°
2026-05-05 22:24 50.65027 -34.61377 39219 ft 516 kts 82°
2026-05-05 22:24 50.66092 -34.50256 39223 ft 515 kts 82°
2026-05-05 22:25 50.67151 -34.39081 39271 ft 514 kts 82°
2026-05-05 22:25 50.68198 -34.27903 39310 ft 516 kts 82°
2026-05-05 22:26 50.69093 -34.18255 39319 ft 518 kts 82°
2026-05-05 22:26 50.69897 -34.09505 39315 ft 519 kts 82°
2026-05-05 22:27 50.70901 -33.98479 39310 ft 520 kts 82°
2026-05-05 22:27 50.71923 -33.87167 39320 ft 520 kts 82°
2026-05-05 22:28 50.72930 -33.75853 39320 ft 520 kts 82°
2026-05-05 22:28 50.73919 -33.64604 39325 ft 520 kts 82°
2026-05-05 22:29 50.74902 -33.53286 39322 ft 519 kts 83°
2026-05-05 22:29 50.75875 -33.41978 39325 ft 518 kts 83°
2026-05-05 22:30 50.76840 -33.30695 39321 ft 517 kts 83°
2026-05-05 22:30 50.77780 -33.19511 39322 ft 515 kts 83°
2026-05-05 22:31 50.78568 -33.10031 39323 ft 514 kts 83°
2026-05-05 22:31 50.79285 -33.01340 39322 ft 513 kts 83°
2026-05-05 22:32 50.80185 -32.90304 39322 ft 512 kts 83°
2026-05-05 22:32 50.81082 -32.79134 39323 ft 512 kts 83°
2026-05-05 22:33 50.81968 -32.68032 39319 ft 511 kts 83°
2026-05-05 22:33 50.82842 -32.56854 39326 ft 511 kts 83°
2026-05-05 22:34 50.83708 -32.45681 39326 ft 511 kts 83°
2026-05-05 22:34 50.84560 -32.34573 39333 ft 511 kts 83°
2026-05-05 22:35 50.85403 -32.23423 39335 ft 512 kts 83°
2026-05-05 22:35 50.86240 -32.12203 39335 ft 512 kts 83°
2026-05-05 22:36 50.86925 -32.02944 39335 ft 512 kts 83°
2026-05-05 22:36 50.87584 -31.93923 39333 ft 513 kts 83°
2026-05-05 22:37 50.88389 -31.82690 39331 ft 513 kts 83°
2026-05-05 22:37 50.89180 -31.71448 39329 ft 513 kts 83°
2026-05-05 22:38 50.89966 -31.60284 39332 ft 512 kts 83°
2026-05-05 22:38 50.90745 -31.49061 39334 ft 511 kts 83°
2026-05-05 22:39 50.91509 -31.37856 39332 ft 510 kts 84°
2026-05-05 22:39 50.92254 -31.26688 39334 ft 510 kts 84°
2026-05-05 22:40 50.92989 -31.15576 39326 ft 509 kts 84°
2026-05-05 22:40 50.93720 -31.04400 39331 ft 508 kts 84°
2026-05-05 22:41 50.94286 -30.95609 39403 ft 506 kts 84°
2026-05-05 22:41 50.94841 -30.86874 39414 ft 506 kts 84°
2026-05-05 22:42 50.95534 -30.75815 39415 ft 506 kts 84°
2026-05-05 22:42 50.96221 -30.64685 39410 ft 506 kts 84°
2026-05-05 22:43 50.96896 -30.53551 39417 ft 506 kts 84°
2026-05-05 22:43 50.97566 -30.42414 39417 ft 507 kts 84°
2026-05-05 22:44 50.98217 -30.31264 39415 ft 508 kts 84°
2026-05-05 22:44 50.98861 -30.20153 39415 ft 508 kts 84°
2026-05-05 22:45 50.99498 -30.08981 39415 ft 508 kts 84°
2026-05-05 22:45 51.00239 -29.98033 39423 ft 506 kts 78°
2026-05-05 22:46 51.01419 -29.89385 39420 ft 504 kts 75°
2026-05-05 22:46 51.02659 -29.81101 39409 ft 504 kts 75°
2026-05-05 22:47 51.04261 -29.70314 39403 ft 503 kts 75°
2026-05-05 22:47 51.05828 -29.59445 39404 ft 502 kts 75°
2026-05-05 22:48 51.07102 -29.50431 39399 ft 501 kts 75°
2026-05-05 22:48 51.08613 -29.39635 39406 ft 499 kts 75°
2026-05-05 22:49 51.10106 -29.28907 39403 ft 499 kts 76°
2026-05-05 22:49 51.11595 -29.18121 39406 ft 499 kts 76°
2026-05-05 22:50 51.13081 -29.07300 39405 ft 499 kts 76°
2026-05-05 22:50 51.14520 -28.96740 39407 ft 499 kts 75°
2026-05-05 22:51 51.15900 -28.86564 39402 ft 498 kts 75°
2026-05-05 22:51 51.16874 -28.79330 39405 ft 499 kts 75°
2026-05-05 22:52 51.18311 -28.68578 39406 ft 499 kts 75°
2026-05-05 22:52 51.19750 -28.57754 39404 ft 498 kts 75°
2026-05-05 22:53 51.21167 -28.46988 39407 ft 499 kts 76°
2026-05-05 22:53 51.22584 -28.36140 39405 ft 499 kts 76°
2026-05-05 22:54 51.23983 -28.25298 39405 ft 497 kts 76°
2026-05-05 22:54 51.25366 -28.14543 39408 ft 497 kts 76°
2026-05-05 22:55 51.26753 -28.03737 39401 ft 495 kts 76°
2026-05-05 22:55 51.28097 -27.93140 39406 ft 494 kts 76°
2026-05-05 22:56 51.29346 -27.83200 39404 ft 494 kts 76°
2026-05-05 22:56 51.30271 -27.75812 39400 ft 493 kts 76°
2026-05-05 22:57 51.31605 -27.65059 39407 ft 492 kts 76°
2026-05-05 22:57 51.32930 -27.54304 39407 ft 492 kts 76°
2026-05-05 22:58 51.34247 -27.43538 39405 ft 493 kts 76°
2026-05-05 22:58 51.35547 -27.32814 39405 ft 493 kts 76°
2026-05-05 22:59 51.36842 -27.22022 39406 ft 494 kts 76°
2026-05-05 22:59 51.38120 -27.11272 39407 ft 494 kts 76°
2026-05-05 23:00 51.40020 -26.95197 39391 ft 495 kts 76°
2026-05-05 23:00 51.41286 -26.84342 39398 ft 494 kts 76°
2026-05-05 23:01 51.42074 -26.77564 39393 ft 493 kts 76°
2026-05-05 23:01 51.43324 -26.66732 39399 ft 493 kts 76°
2026-05-05 23:02 51.44560 -26.55900 39396 ft 494 kts 76°
2026-05-05 23:02 51.45779 -26.45122 39394 ft 493 kts 76°
2026-05-05 23:03 51.46989 -26.34323 39393 ft 493 kts 76°
2026-05-05 23:03 51.48193 -26.23494 39397 ft 492 kts 76°
2026-05-05 23:04 51.49387 -26.12673 39396 ft 491 kts 76°
2026-05-05 23:04 51.50563 -26.01911 39397 ft 491 kts 76°
2026-05-05 23:05 51.51711 -25.91322 39401 ft 490 kts 76°
2026-05-05 23:05 51.52869 -25.80521 39393 ft 490 kts 76°
2026-05-05 23:06 51.53575 -25.73890 39394 ft 489 kts 76°
2026-05-05 23:06 51.54716 -25.63108 39393 ft 488 kts 76°
2026-05-05 23:07 51.55843 -25.52383 39397 ft 488 kts 76°
2026-05-05 23:07 51.56956 -25.41645 39397 ft 489 kts 76°
2026-05-05 23:08 51.58067 -25.30849 39397 ft 489 kts 77°
2026-05-05 23:08 51.59171 -25.20017 39394 ft 490 kts 77°
2026-05-05 23:09 51.60261 -25.09230 39387 ft 491 kts 77°
2026-05-05 23:09 51.61334 -24.98523 39336 ft 492 kts 77°
2026-05-05 23:10 51.62405 -24.87688 39331 ft 492 kts 77°
2026-05-05 23:10 51.63466 -24.76792 39332 ft 493 kts 77°
2026-05-05 23:11 51.64121 -24.70084 39332 ft 492 kts 77°
2026-05-05 23:11 51.65176 -24.59174 39319 ft 492 kts 77°
2026-05-05 23:12 51.66217 -24.48273 39324 ft 491 kts 77°
2026-05-05 23:12 51.67240 -24.37463 39323 ft 491 kts 77°
2026-05-05 23:13 51.68259 -24.26584 39322 ft 490 kts 77°
2026-05-05 23:13 51.69266 -24.15691 39325 ft 490 kts 77°
2026-05-05 23:14 51.70265 -24.04813 39322 ft 490 kts 77°
2026-05-05 23:14 51.71231 -23.94165 39321 ft 489 kts 77°
2026-05-05 23:15 51.72207 -23.83293 39323 ft 488 kts 77°
2026-05-05 23:15 51.73168 -23.72494 39319 ft 489 kts 78°
2026-05-05 23:16 51.73748 -23.65903 39323 ft 489 kts 78°
2026-05-05 23:16 51.74693 -23.55034 39320 ft 488 kts 78°
2026-05-05 23:17 51.75628 -23.44241 39323 ft 489 kts 78°
2026-05-05 23:17 51.76560 -23.33351 39326 ft 490 kts 78°
2026-05-05 23:18 51.77483 -23.22402 39326 ft 492 kts 78°
2026-05-05 23:18 51.78398 -23.11401 39320 ft 493 kts 78°
2026-05-05 23:19 51.79298 -23.00489 39312 ft 493 kts 78°
2026-05-05 23:19 51.80183 -22.89641 39312 ft 494 kts 79°
2026-05-05 23:20 51.81071 -22.78625 39314 ft 494 kts 79°
2026-05-05 23:20 51.81950 -22.67649 39313 ft 496 kts 79°
2026-05-05 23:21 51.82506 -22.60558 39313 ft 495 kts 79°
2026-05-05 23:21 51.83359 -22.49531 39293 ft 497 kts 79°
2026-05-05 23:22 51.84214 -22.38437 39251 ft 496 kts 79°
2026-05-05 23:22 51.85058 -22.27371 39247 ft 495 kts 80°
2026-05-05 23:23 51.85892 -22.16307 39249 ft 494 kts 80°
2026-05-05 23:23 51.86703 -22.05343 39248 ft 493 kts 80°
2026-05-05 23:24 51.87499 -21.94466 39249 ft 492 kts 80°
2026-05-05 23:24 51.88289 -21.83518 39246 ft 492 kts 80°
2026-05-05 23:25 51.89077 -21.72468 39178 ft 493 kts 80°
2026-05-05 23:25 51.89855 -21.61421 39183 ft 493 kts 80°
2026-05-05 23:26 51.90340 -21.54462 39177 ft 493 kts 81°
2026-05-05 23:26 51.91100 -21.43423 39177 ft 493 kts 81°
2026-05-05 23:27 51.91847 -21.32361 39175 ft 493 kts 81°
2026-05-05 23:27 51.92583 -21.21340 39177 ft 493 kts 81°
2026-05-05 23:28 51.93313 -21.10268 39176 ft 494 kts 81°
2026-05-05 23:28 51.94019 -20.99404 39176 ft 494 kts 81°
2026-05-05 23:29 51.94732 -20.88289 39178 ft 496 kts 81°
2026-05-05 23:29 51.95434 -20.77162 39171 ft 495 kts 81°
2026-05-05 23:30 51.96006 -20.67922 39178 ft 496 kts 81°
2026-05-05 23:30 51.96804 -20.54882 39176 ft 496 kts 82°
2026-05-05 23:31 51.97246 -20.47546 39172 ft 496 kts 82°
2026-05-05 23:31 51.97908 -20.36403 39169 ft 495 kts 82°
2026-05-05 23:32 51.98559 -20.25263 39166 ft 496 kts 82°
2026-05-05 23:32 51.99202 -20.14115 39165 ft 496 kts 82°
2026-05-05 23:33 51.99835 -20.02973 39165 ft 495 kts 82°
2026-05-05 23:33 52.00253 -19.92042 39159 ft 497 kts 85°
2026-05-05 23:34 52.00448 -19.80796 39168 ft 498 kts 86°
2026-05-05 23:34 52.00616 -19.69605 39165 ft 498 kts 86°
2026-05-05 23:35 52.00801 -19.58374 39166 ft 498 kts 86°
2026-05-05 23:35 52.00964 -19.48957 39167 ft 497 kts 86°
2026-05-05 23:36 52.01089 -19.41502 39164 ft 497 kts 86°
2026-05-05 23:36 52.01267 -19.30334 39164 ft 496 kts 86°
2026-05-05 23:37 52.01434 -19.19110 39156 ft 497 kts 86°
2026-05-05 23:37 52.01589 -19.07848 39148 ft 497 kts 86°
2026-05-05 23:38 52.01730 -18.96879 39147 ft 497 kts 86°
2026-05-05 23:38 52.01866 -18.85660 39140 ft 497 kts 86°
2026-05-05 23:39 52.01988 -18.74491 39139 ft 497 kts 87°
2026-05-05 23:39 52.02100 -18.63266 39136 ft 497 kts 87°
2026-05-05 23:40 52.02202 -18.52039 39136 ft 497 kts 87°
2026-05-05 23:40 52.02292 -18.40817 39143 ft 497 kts 87°
2026-05-05 23:41 52.02351 -18.33097 39116 ft 498 kts 87°
2026-05-05 23:41 52.02428 -18.21818 39109 ft 498 kts 88°
2026-05-05 23:42 52.02489 -18.10644 39113 ft 497 kts 88°
2026-05-05 23:42 52.02539 -17.99568 39111 ft 498 kts 88°
2026-05-05 23:43 52.02580 -17.88376 39110 ft 498 kts 88°
2026-05-05 23:43 52.02611 -17.77117 39118 ft 499 kts 88°
2026-05-05 23:44 52.02633 -17.65832 39109 ft 499 kts 88°
2026-05-05 23:44 52.02642 -17.54616 39107 ft 498 kts 88°
2026-05-05 23:45 52.02641 -17.43372 39102 ft 498 kts 88°
2026-05-05 23:45 52.02631 -17.32132 39101 ft 497 kts 88°
2026-05-05 23:46 52.02620 -17.25046 39098 ft 497 kts 88°
2026-05-05 23:46 52.02591 -17.13819 39101 ft 496 kts 89°
2026-05-05 23:47 52.02551 -17.02587 39102 ft 496 kts 89°
2026-05-05 23:47 52.02500 -16.91610 39101 ft 496 kts 89°
2026-05-05 23:48 52.02440 -16.80378 39101 ft 496 kts 89°
2026-05-05 23:48 52.02370 -16.69188 39101 ft 495 kts 89°
2026-05-05 23:49 52.02289 -16.58076 39104 ft 494 kts 89°
2026-05-05 23:49 52.02196 -16.46923 39102 ft 494 kts 90°
2026-05-05 23:50 52.02096 -16.35772 39094 ft 495 kts 90°
2026-05-05 23:50 52.01981 -16.24572 39092 ft 494 kts 90°
2026-05-05 23:51 52.01901 -16.17526 39093 ft 493 kts 90°
2026-05-05 23:51 52.01773 -16.06380 39092 ft 494 kts 90°
2026-05-05 23:52 52.01633 -15.95379 39093 ft 494 kts 90°
2026-05-05 23:52 52.01481 -15.84209 39094 ft 494 kts 90°
2026-05-05 23:53 52.01324 -15.73126 39091 ft 494 kts 90°
2026-05-05 23:53 52.01148 -15.61984 39094 ft 494 kts 90°
2026-05-05 23:54 52.00964 -15.50813 39087 ft 495 kts 90°
2026-05-05 23:54 52.00771 -15.39631 39081 ft 494 kts 90°
2026-05-05 23:55 52.00567 -15.28488 39085 ft 494 kts 91°
2026-05-05 23:55 52.00352 -15.17389 39083 ft 495 kts 91°
2026-05-05 23:56 52.00212 -15.10290 39084 ft 496 kts 91°
2026-05-05 23:56 51.99986 -14.99280 39082 ft 495 kts 90°
2026-05-05 23:57 51.99951 -14.88171 39084 ft 495 kts 88°
2026-05-05 23:57 52.00042 -14.76989 39083 ft 495 kts 88°
2026-05-05 23:58 52.00093 -14.65863 39083 ft 495 kts 89°
2026-05-05 23:58 52.00107 -14.54677 39083 ft 495 kts 89°
2026-05-05 23:59 52.00102 -14.43478 39082 ft 495 kts 89°
2026-05-05 23:59 52.00091 -14.32369 39089 ft 495 kts 89°
2026-05-06 00:00 52.00070 -14.21174 39093 ft 494 kts 89°
2026-05-06 00:00 52.00040 -14.10075 39093 ft 494 kts 89°
2026-05-06 00:01 51.99476 -14.02331 39092 ft 494 kts 105°
2026-05-06 00:01 51.96787 -13.92354 39083 ft 493 kts 124°
2026-05-06 00:02 51.92733 -13.83335 39089 ft 494 kts 127°
2026-05-06 00:02 51.88590 -13.74384 39085 ft 496 kts 127°
2026-05-06 00:03 51.84513 -13.65453 39084 ft 497 kts 127°
2026-05-06 00:03 51.80425 -13.56416 39082 ft 497 kts 126°
2026-05-06 00:04 51.76359 -13.47427 39087 ft 498 kts 127°
2026-05-06 00:04 51.72264 -13.38406 39073 ft 497 kts 127°
2026-05-06 00:05 51.66116 -13.24924 39072 ft 496 kts 127°
2026-05-06 00:06 51.62648 -13.17354 39074 ft 495 kts 127°
2026-05-06 00:06 51.59200 -13.09848 39072 ft 494 kts 127°
2026-05-06 00:07 51.55137 -13.01038 39073 ft 493 kts 127°
2026-05-06 00:07 51.51108 -12.92336 39069 ft 493 kts 127°
2026-05-06 00:08 51.47007 -12.83500 39067 ft 493 kts 127°
2026-05-06 00:08 51.42924 -12.74725 39066 ft 492 kts 127°
2026-05-06 00:09 51.38815 -12.65927 39066 ft 493 kts 127°
2026-05-06 00:09 51.34694 -12.57142 39064 ft 493 kts 127°
2026-05-06 00:10 51.30559 -12.48358 39066 ft 493 kts 127°
2026-05-06 00:10 51.26457 -12.39666 39062 ft 492 kts 127°
2026-05-06 00:11 51.23002 -12.32369 39067 ft 494 kts 127°
2026-05-06 00:11 51.19411 -12.24804 39065 ft 494 kts 128°
2026-05-06 00:12 51.15271 -12.16119 39064 ft 494 kts 128°
2026-05-06 00:12 51.11104 -12.07403 39061 ft 494 kts 128°
2026-05-06 00:13 51.07001 -11.98844 39065 ft 493 kts 128°
2026-05-06 00:13 51.02845 -11.90208 39066 ft 494 kts 128°
2026-05-06 00:14 50.98666 -11.81550 39064 ft 494 kts 128°
2026-05-06 00:14 50.94495 -11.72942 39066 ft 493 kts 128°
2026-05-06 00:15 50.90301 -11.64320 39064 ft 492 kts 128°
2026-05-06 00:15 50.86139 -11.55775 39066 ft 492 kts 128°
2026-05-06 00:16 50.82719 -11.48775 39061 ft 491 kts 128°
2026-05-06 00:16 50.78933 -11.41065 39052 ft 490 kts 128°
2026-05-06 00:17 50.74744 -11.32560 39062 ft 489 kts 128°
2026-05-06 00:17 50.70557 -11.24078 39067 ft 489 kts 128°
2026-05-06 00:18 50.66390 -11.15657 39065 ft 490 kts 128°
2026-05-06 00:18 50.62174 -11.07169 39063 ft 491 kts 128°
2026-05-06 00:19 50.58046 -10.98886 39067 ft 491 kts 129°
2026-05-06 00:19 50.53813 -10.90421 39066 ft 492 kts 129°
2026-05-06 00:20 50.49568 -10.81958 39063 ft 492 kts 129°
2026-05-06 00:20 50.45349 -10.73569 39061 ft 491 kts 129°
2026-05-06 00:21 50.41952 -10.66836 39062 ft 491 kts 129°
2026-05-06 00:21 50.38134 -10.59294 39055 ft 490 kts 129°
2026-05-06 00:22 50.33903 -10.50971 39055 ft 491 kts 129°
2026-05-06 00:22 50.29647 -10.42612 39052 ft 489 kts 129°
2026-05-06 00:23 50.25401 -10.34294 39055 ft 488 kts 129°
2026-05-06 00:23 50.21160 -10.26019 39056 ft 487 kts 129°
2026-05-06 00:24 50.16944 -10.17820 39055 ft 486 kts 129°
2026-05-06 00:24 50.12706 -10.09605 39061 ft 485 kts 129°
2026-05-06 00:25 50.09176 -10.02779 39066 ft 485 kts 129°
2026-05-06 00:25 50.05017 -9.94766 39068 ft 485 kts 129°
2026-05-06 00:26 50.00973 -9.86995 39065 ft 486 kts 129°
2026-05-06 00:26 49.97790 -9.80896 39069 ft 487 kts 129°
2026-05-06 00:27 49.93505 -9.72707 39066 ft 488 kts 129°
2026-05-06 00:27 49.89235 -9.64564 39065 ft 489 kts 129°
2026-05-06 00:28 49.84936 -9.56400 39059 ft 489 kts 129°
2026-05-06 00:28 49.80624 -9.48227 39055 ft 489 kts 130°
2026-05-06 00:29 49.76342 -9.40132 39053 ft 489 kts 130°
2026-05-06 00:29 49.72010 -9.31978 39055 ft 488 kts 130°
2026-05-06 00:30 49.67719 -9.23933 39056 ft 488 kts 130°
2026-05-06 00:30 49.63387 -9.15827 39055 ft 488 kts 130°
2026-05-06 00:31 49.59365 -9.08323 39056 ft 488 kts 130°
2026-05-06 00:31 49.56056 -9.02168 39055 ft 487 kts 130°
2026-05-06 00:32 49.51778 -8.94231 39055 ft 487 kts 130°
2026-05-06 00:32 49.47449 -8.86225 39053 ft 487 kts 130°
2026-05-06 00:33 49.43132 -8.78269 39057 ft 486 kts 130°
2026-05-06 00:33 49.38788 -8.70275 39057 ft 486 kts 130°
2026-05-06 00:34 49.34435 -8.62300 39057 ft 487 kts 130°
2026-05-06 00:34 49.30111 -8.54398 39053 ft 487 kts 130°
2026-05-06 00:35 49.25756 -8.46454 39055 ft 487 kts 130°
2026-05-06 00:35 49.21379 -8.38505 39028 ft 488 kts 130°
2026-05-06 00:36 49.17377 -8.31253 39026 ft 489 kts 130°
2026-05-06 00:36 49.14014 -8.25176 39026 ft 488 kts 130°
2026-05-06 00:37 49.09618 -8.17254 39028 ft 488 kts 130°
2026-05-06 00:37 49.05218 -8.09345 39028 ft 488 kts 130°
2026-05-06 00:38 49.01357 -8.01014 39034 ft 485 kts 112°
2026-05-06 00:38 48.99911 -7.91250 39026 ft 482 kts 89°
2026-05-06 00:39 49.00120 -7.81004 39030 ft 482 kts 87°
2026-05-06 00:39 49.00318 -7.70776 39030 ft 483 kts 88°
2026-05-06 00:40 49.00415 -7.60589 39030 ft 484 kts 88°